Home   Weather   Kumanovo   Past weeks

Flag for Macedonia, Republic of Past Weather in Kumanovo, Macedonia, Republic of — Yesterday and Last 2 Weeks

Now
43 °F

Passing clouds.


Feels Like: 40 °F
Forecast: 37 / 65 °F
Wind: 5 mph from Northeast

Location: Skopje-Petrovec

Current Time: Apr 24, 2017 at 2:12:48 am

Latest Report: Apr 24, 2017 at 1:30 am


Visibility: N/A

Pressure: 30.21 "Hg

Humidity: 76%

Dew Point: 36 °F

Location of KumanovoLocation

Past Weather in Kumanovo — Graph

°F

Kumanovo Temperature Yesterday

Maximum temperature yesterday: 63 °F (at 12:00 pm)
Minimum temperature yesterday: 39 °F (at 6:30 am)
Average temperature yesterday: 49 °F

High & Low Weather Summary for the Past Weeks

 TemperatureHumidityPressure
High63 °F (Apr 23, 12:00 pm)93% (Apr 19, 9:30 pm)30.33 "Hg (Apr 19, 9:30 pm)
Low28 °F (Apr 22, 6:30 am)28% (Apr 22, 5:30 pm)29.77 "Hg (Apr 19, 9:00 am)
Average44 °F66%30.07 "Hg
* Reported Apr 19 9:00 am — Apr 24 12:30 am, Kumanovo, Weather by CustomWeather, © 2017

Note: Actual official high and low records may vary slightly from our data, if they occured in-between our weather recording intervals... More about our weather records

Advertising

Kumanovo Weather History for the Previous 24 Hours

Scroll right to see more
 ConditionsComfort  
Time TempWeatherWind HumidityBarometerVisibility
12:30 am
Mon, Apr 24
43 °FPassing clouds.1 mph76%30.21 "HgN/A
12:00 am45 °FPassing clouds.12 mph71%30.21 "HgN/A
11:00 pm
Sun, Apr 23
46 °FPassing clouds.8 mph71%30.21 "HgN/A
10:30 pm46 °FPassing clouds.8 mph71%30.18 "HgN/A
10:00 pm46 °FPassing clouds.8 mph71%30.18 "HgN/A
9:00 pm46 °FPassing clouds.9 mph71%30.18 "HgN/A
8:30 pm46 °FPassing clouds.9 mph71%30.18 "HgN/A
8:00 pm48 °FPassing clouds.8 mph66%30.15 "HgN/A
7:30 pm48 °FPassing clouds.7 mph66%30.15 "HgN/A
7:00 pm48 °FPartly sunny.8 mph62%30.12 "HgN/A
6:30 pm48 °FPartly sunny.12 mph58%30.12 "HgN/A
6:00 pm48 °FBroken clouds.13 mph62%30.12 "HgN/A
5:30 pm48 °FBroken clouds.16 mph58%30.12 "HgN/A
5:00 pm48 °FBroken clouds.14 mph66%30.09 "HgN/A
4:30 pm46 °FDrizzle. More clouds than sun.16 mph76%30.09 "HgN/A
4:00 pm48 °FLight rain. More clouds than sun.21 mph71%30.07 "HgN/A
3:30 pm50 °FLight rain. More clouds than sun.24 mph71%30.07 "HgN/A
3:00 pm55 °FLight rain. More clouds than sun.23 mph59%30.04 "HgN/A
2:30 pm57 °FLight rain. More clouds than sun.20 mph55%30.04 "HgN/A
2:00 pm59 °FLight rain. More clouds than sun.21 mph48%30.01 "HgN/A
1:30 pm61 °FBroken clouds.12 mph36%30.01 "HgN/A
1:00 pm63 °FBroken clouds.2 mph32%29.98 "HgN/A
12:30 pm63 °FPassing clouds.5 mph32%29.98 "HgN/A
12:00 pm63 °FPassing clouds.2 mph34%29.98 "HgN/A
11:30 am61 °FScattered clouds.5 mph36%30.01 "HgN/A
11:00 am59 °FScattered clouds.2 mph42%30.01 "HgN/A
10:30 am57 °FPassing clouds.No wind41%30.01 "HgN/A
10:00 am55 °FPassing clouds.No wind44%30.01 "HgN/A
9:00 am52 °FSunny.2 mph54%30.04 "Hg10 mi
8:30 am50 °FSunny.2 mph58%30.04 "Hg10 mi
8:00 am46 °FSunny.No wind66%30.04 "Hg10 mi
7:30 am45 °FSunny.No wind76%30.04 "Hg10 mi
7:00 am41 °FSunny.No wind81%30.04 "Hg10 mi
6:30 am39 °FSunny.No wind81%30.01 "Hg10 mi
6:00 am41 °FSunny.No wind81%30.01 "Hg10 mi
5:30 am41 °FPassing clouds.2 mph87%30.01 "HgN/A
4:30 am43 °FPassing clouds.2 mph81%30.01 "HgN/A
3:30 am45 °FPassing clouds.No wind76%30.01 "HgN/A
3:00 am45 °FPassing clouds.No wind76%30.01 "HgN/A
2:30 am45 °FPassing clouds.No wind71%30.01 "HgN/A
2:00 am45 °FPassing clouds.No wind71%30.01 "HgN/A
Weather by CustomWeather, © 2017

See weather overviewHow to use our weather pages